,,PressureMeas_1m,,PRMeasQMR101_1,,RHStat155_1m_1,,SRMeasQMS101R_1m,,TAStat155_1m_1,,GenWind_1,,GenWind_1,
2017-07-12, 07:00:07,VALID,918.662,VALID,0.0,VALID,98.0,VALID,48.839,VALID,19.275,VALID,123.0,VALID,0.646,
2017-07-12, 07:01:07,VALID,918.667,VALID,0.0,VALID,97.977,VALID,50.926,VALID,19.279,VALID,113.0,VALID,0.718,
2017-07-12, 07:02:07,VALID,918.7,VALID,0.0,VALID,97.971,VALID,53.014,VALID,19.288,VALID,111.0,VALID,0.759,
2017-07-12, 07:03:07,VALID,918.711,VALID,0.0,VALID,97.966,VALID,55.305,VALID,19.3,VALID,108.0,VALID,0.604,
2017-07-12, 07:04:07,VALID,918.715,VALID,0.0,VALID,97.938,VALID,57.91,VALID,19.316,VALID,101.0,VALID,0.52,
2017-07-12, 07:05:07,VALID,918.723,VALID,0.0,VALID,97.891,VALID,60.382,VALID,19.335,VALID,108.0,VALID,0.429,
2017-07-12, 07:06:07,VALID,918.737,VALID,0.0,VALID,97.865,VALID,62.731,VALID,19.36,VALID,119.0,VALID,0.337,
2017-07-12, 07:07:07,VALID,918.737,VALID,0.0,VALID,97.845,VALID,65.1,VALID,19.394,VALID,123.0,VALID,0.314,
2017-07-12, 07:08:07,VALID,918.757,VALID,0.0,VALID,97.806,VALID,66.898,VALID,19.43,VALID,123.0,VALID,0.307,
2017-07-12, 07:09:07,VALID,918.773,VALID,0.0,VALID,97.697,VALID,65.536,VALID,19.453,VALID,123.0,VALID,0.369,
2017-07-12, 07:10:07,VALID,918.804,VALID,0.0,VALID,97.648,VALID,61.205,VALID,19.478,VALID,117.0,VALID,0.421,
2017-07-12, 07:11:07,VALID,918.841,VALID,0.0,VALID,97.622,VALID,59.082,VALID,19.52,VALID,97.0,VALID,0.187,
2017-07-12, 07:12:07,VALID,918.868,VALID,0.0,VALID,97.523,VALID,58.5,VALID,19.529,VALID,96.0,VALID,0.366,
2017-07-12, 07:13:07,VALID,918.892,VALID,0.0,VALID,97.314,VALID,58.636,VALID,19.517,VALID,96.0,VALID,0.338,
2017-07-12, 07:14:07,VALID,918.916,VALID,0.0,VALID,97.171,VALID,59.395,VALID,19.514,VALID,96.0,VALID,0.36,
2017-07-12, 07:15:07,VALID,918.936,VALID,0.0,VALID,97.062,VALID,60.244,VALID,19.526,VALID,96.0,VALID,0.377,
2017-07-12, 07:16:07,VALID,918.956,VALID,0.0,VALID,96.87,VALID,61.224,VALID,19.527,VALID,102.0,VALID,0.353,
2017-07-12, 07:17:07,VALID,918.973,VALID,0.0,VALID,96.819,VALID,62.503,VALID,19.562,VALID,126.0,VALID,0.346,
2017-07-12, 07:18:07,VALID,918.969,VALID,0.0,VALID,96.796,VALID,64.107,VALID,19.61,VALID,126.0,VALID,0.168,
2017-07-12, 07:19:07,VALID,918.961,VALID,0.0,VALID,96.97,VALID,65.736,VALID,19.666,VALID,127.0,VALID,0.244,
2017-07-12, 07:20:07,VALID,918.956,VALID,0.0,VALID,96.972,VALID,67.489,VALID,19.701,VALID,127.0,VALID,0.386,
2017-07-12, 07:21:07,VALID,918.943,VALID,0.0,VALID,96.976,VALID,69.642,VALID,19.703,VALID,144.0,VALID,0.573,
2017-07-12, 07:22:07,VALID,918.94,VALID,0.0,VALID,96.912,VALID,71.579,VALID,19.657,VALID,139.0,VALID,0.75,
2017-07-12, 07:23:07,VALID,918.935,VALID,0.0,VALID,97.079,VALID,73.235,VALID,19.639,VALID,131.0,VALID,0.592,
2017-07-12, 07:24:07,VALID,918.94,VALID,0.0,VALID,97.215,VALID,73.779,VALID,19.627,VALID,119.0,VALID,0.668,
2017-07-12, 07:25:07,VALID,918.952,VALID,0.0,VALID,97.388,VALID,74.156,VALID,19.64,VALID,115.0,VALID,0.459,
2017-07-12, 07:26:07,VALID,918.97,VALID,0.0,VALID,97.47,VALID,75.598,VALID,19.652,VALID,116.0,VALID,0.805,
2017-07-12, 07:27:07,VALID,918.991,VALID,0.0,VALID,97.404,VALID,76.327,VALID,19.649,VALID,129.0,VALID,0.562,
2017-07-12, 07:28:07,VALID,918.993,VALID,0.0,VALID,97.407,VALID,76.311,VALID,19.666,VALID,126.0,VALID,0.474,
2017-07-12, 07:29:07,VALID,919.014,VALID,0.0,VALID,97.424,VALID,77.495,VALID,19.699,VALID,136.0,VALID,0.27,
2017-07-12, 07:30:07,VALID,919.003,VALID,0.0,VALID,97.467,VALID,78.611,VALID,19.724,VALID,151.0,VALID,0.536,
2017-07-12, 07:31:07,VALID,919.001,VALID,0.0,VALID,97.32,VALID,79.591,VALID,19.712,VALID,143.0,VALID,0.566,
2017-07-12, 07:32:07,VALID,918.979,VALID,0.0,VALID,97.212,VALID,80.497,VALID,19.71,VALID,146.0,VALID,0.529,
2017-07-12, 07:33:07,VALID,918.972,VALID,0.0,VALID,97.215,VALID,81.155,VALID,19.704,VALID,158.0,VALID,0.67,
2017-07-12, 07:34:07,VALID,918.964,VALID,0.0,VALID,97.123,VALID,81.449,VALID,19.694,VALID,138.0,VALID,0.386,
2017-07-12, 07:35:07,VALID,918.957,VALID,0.0,VALID,97.157,VALID,81.374,VALID,19.719,VALID,135.0,VALID,0.288,
2017-07-12, 07:36:07,VALID,918.966,VALID,0.0,VALID,97.14,VALID,81.534,VALID,19.745,VALID,135.0,VALID,0.118,
2017-07-12, 07:37:07,VALID,918.978,VALID,0.0,VALID,97.193,VALID,82.153,VALID,19.793,VALID,135.0,VALID,0.0,
2017-07-12, 07:38:07,VALID,918.989,VALID,0.0,VALID,97.19,VALID,83.275,VALID,19.824,VALID,135.0,VALID,0.0,
2017-07-12, 07:39:07,VALID,919.021,VALID,0.0,VALID,97.085,VALID,84.637,VALID,19.843,VALID,135.0,VALID,0.0,
2017-07-12, 07:40:07,VALID,919.041,VALID,0.0,VALID,96.978,VALID,85.968,VALID,19.855,VALID,156.0,VALID,0.0,
2017-07-12, 07:41:07,VALID,919.06,VALID,0.0,VALID,96.928,VALID,87.581,VALID,19.876,VALID,158.0,VALID,0.0,
2017-07-12, 07:42:07,VALID,919.078,VALID,0.0,VALID,96.818,VALID,89.579,VALID,19.891,VALID,156.0,VALID,0.0,
2017-07-12, 07:43:07,VALID,919.083,VALID,0.0,VALID,96.551,VALID,91.816,VALID,19.895,VALID,141.0,VALID,0.0,
2017-07-12, 07:44:07,VALID,919.069,VALID,0.0,VALID,95.684,VALID,94.011,VALID,19.88,VALID,122.0,VALID,0.0,
2017-07-12, 07:45:07,VALID,919.079,VALID,0.0,VALID,95.761,VALID,95.915,VALID,19.938,VALID,102.0,VALID,0.0,
2017-07-12, 07:46:07,VALID,919.073,VALID,0.0,VALID,95.806,VALID,97.395,VALID,19.99,VALID,77.0,VALID,0.062,
2017-07-12, 07:47:07,VALID,919.089,VALID,0.0,VALID,95.237,VALID,98.559,VALID,19.999,VALID,63.0,VALID,0.706,
2017-07-12, 07:48:07,VALID,919.119,VALID,0.0,VALID,95.712,VALID,99.524,VALID,20.079,VALID,52.0,VALID,0.241,
2017-07-12, 07:49:07,VALID,919.143,VALID,0.0,VALID,95.692,VALID,100.386,VALID,20.134,VALID,51.0,VALID,0.0,
2017-07-12, 07:50:07,VALID,919.182,VALID,0.0,VALID,95.381,VALID,101.519,VALID,20.184,VALID,51.0,VALID,0.0,
2017-07-12, 07:51:07,VALID,919.207,VALID,0.0,VALID,95.157,VALID,102.984,VALID,20.215,VALID,52.0,VALID,0.024,
2017-07-12, 07:52:07,VALID,919.215,VALID,0.0,VALID,95.059,VALID,105.099,VALID,20.247,VALID,52.0,VALID,0.071,
2017-07-12, 07:53:07,VALID,919.228,VALID,0.0,VALID,94.649,VALID,107.611,VALID,20.266,VALID,71.0,VALID,0.308,
2017-07-12, 07:54:07,VALID,919.252,VALID,0.0,VALID,94.318,VALID,110.469,VALID,20.287,VALID,69.0,VALID,0.0,
2017-07-12, 07:55:07,VALID,919.252,VALID,0.0,VALID,93.882,VALID,113.561,VALID,20.327,VALID,83.0,VALID,0.025,
2017-07-12, 07:56:07,VALID,919.251,VALID,0.0,VALID,93.772,VALID,116.628,VALID,20.38,VALID,166.0,VALID,0.161,
2017-07-12, 07:57:07,VALID,919.244,VALID,0.0,VALID,94.062,VALID,119.485,VALID,20.421,VALID,168.0,VALID,0.057,
2017-07-12, 07:58:07,VALID,919.241,VALID,0.0,VALID,93.917,VALID,122.122,VALID,20.442,VALID,162.0,VALID,0.087,
2017-07-12, 07:59:07,VALID,919.252,VALID,0.0,VALID,93.909,VALID,124.267,VALID,20.463,VALID,162.0,VALID,0.0,
2017-07-12, 08:00:07,VALID,919.27,VALID,0.0,VALID,94.094,VALID,126.091,VALID,20.521,VALID,162.0,VALID,0.0,
2017-07-12, 08:01:07,VALID,919.298,VALID,0.0,VALID,93.933,VALID,127.872,VALID,20.581,VALID,162.0,VALID,0.0,
2017-07-12, 08:02:07,VALID,919.325,VALID,0.0,VALID,93.407,VALID,129.595,VALID,20.609,VALID,165.0,VALID,0.103,
2017-07-12, 08:03:07,VALID,919.34,VALID,0.0,VALID,93.108,VALID,131.266,VALID,20.595,VALID,180.0,VALID,0.573,
2017-07-12, 08:04:07,VALID,919.357,VALID,0.0,VALID,92.65,VALID,132.891,VALID,20.565,VALID,183.0,VALID,0.518,
2017-07-12, 08:05:07,VALID,919.361,VALID,0.0,VALID,92.793,VALID,134.488,VALID,20.545,VALID,155.0,VALID,0.405,
2017-07-12, 08:06:07,VALID,919.361,VALID,0.0,VALID,92.87,VALID,135.855,VALID,20.495,VALID,137.0,VALID,0.359,
2017-07-12, 08:07:07,VALID,919.364,VALID,0.0,VALID,92.985,VALID,136.959,VALID,20.455,VALID,114.0,VALID,0.186,
2017-07-12, 08:08:07,VALID,919.358,VALID,0.0,VALID,93.749,VALID,138.028,VALID,20.46,VALID,89.0,VALID,0.063,
2017-07-12, 08:09:07,VALID,919.352,VALID,0.0,VALID,93.945,VALID,139.109,VALID,20.478,VALID,32.0,VALID,0.105,
2017-07-12, 08:10:07,VALID,919.363,VALID,0.0,VALID,93.762,VALID,140.242,VALID,20.507,VALID,35.0,VALID,0.148,
2017-07-12, 08:11:07,VALID,919.356,VALID,0.0,VALID,93.758,VALID,141.378,VALID,20.558,VALID,37.0,VALID,0.0,
2017-07-12, 08:12:07,VALID,919.373,VALID,0.0,VALID,93.712,VALID,142.666,VALID,20.639,VALID,37.0,VALID,0.0,
2017-07-12, 08:13:07,VALID,919.391,VALID,0.0,VALID,93.419,VALID,144.01,VALID,20.691,VALID,32.0,VALID,0.0,
2017-07-12, 08:14:07,VALID,919.426,VALID,0.0,VALID,93.233,VALID,145.36,VALID,20.722,VALID,30.0,VALID,0.0,
2017-07-12, 08:15:07,VALID,919.449,VALID,0.0,VALID,92.785,VALID,146.762,VALID,20.723,VALID,16.0,VALID,0.123,
2017-07-12, 08:16:07,VALID,919.463,VALID,0.0,VALID,91.873,VALID,148.244,VALID,20.697,VALID,29.0,VALID,0.516,
2017-07-12, 08:17:07,VALID,919.471,VALID,0.0,VALID,91.628,VALID,149.912,VALID,20.687,VALID,52.0,VALID,0.931,
2017-07-12, 08:18:07,VALID,919.488,VALID,0.0,VALID,92.112,VALID,151.812,VALID,20.665,VALID,52.0,VALID,1.007,
2017-07-12, 08:19:07,VALID,919.497,VALID,0.0,VALID,92.203,VALID,154.074,VALID,20.639,VALID,56.0,VALID,0.859,
2017-07-12, 08:20:07,VALID,919.519,VALID,0.0,VALID,92.434,VALID,156.397,VALID,20.63,VALID,46.0,VALID,0.641,
2017-07-12, 08:21:07,VALID,919.537,VALID,0.0,VALID,92.407,VALID,158.675,VALID,20.656,VALID,52.0,VALID,0.272,
2017-07-12, 08:22:07,VALID,919.551,VALID,0.0,VALID,92.913,VALID,161.037,VALID,20.688,VALID,42.0,VALID,0.125,
2017-07-12, 08:23:07,VALID,919.557,VALID,0.0,VALID,92.593,VALID,163.516,VALID,20.696,VALID,27.0,VALID,0.209,
2017-07-12, 08:24:07,VALID,919.56,VALID,0.0,VALID,92.351,VALID,165.911,VALID,20.741,VALID,29.0,VALID,0.488,
2017-07-12, 08:25:07,VALID,919.559,VALID,0.0,VALID,91.997,VALID,168.465,VALID,20.799,VALID,33.0,VALID,0.666,
2017-07-12, 08:26:07,VALID,919.563,VALID,0.0,VALID,91.205,VALID,171.219,VALID,20.852,VALID,25.0,VALID,0.758,
2017-07-12, 08:27:07,VALID,919.543,VALID,0.0,VALID,90.4,VALID,174.299,VALID,20.857,VALID,45.0,VALID,0.591,
2017-07-12, 08:28:07,VALID,919.54,VALID,0.0,VALID,90.006,VALID,177.764,VALID,20.805,VALID,53.0,VALID,0.28,
2017-07-12, 08:29:06,VALID,919.53,VALID,0.0,VALID,90.273,VALID,180.064,VALID,20.808,VALID,44.0,VALID,0.593,
2017-07-12, 08:30:06,VALID,919.5,VALID,0.0,VALID,89.849,VALID,181.641,VALID,20.835,VALID,42.0,VALID,0.638,
2017-07-12, 08:31:06,VALID,919.496,VALID,0.0,VALID,89.488,VALID,183.525,VALID,20.853,VALID,50.0,VALID,0.793,
2017-07-12, 08:32:06,VALID,919.495,VALID,0.0,VALID,89.287,VALID,185.524,VALID,20.836,VALID,57.0,VALID,0.655,
2017-07-12, 08:33:06,VALID,919.494,VALID,0.0,VALID,89.49,VALID,186.889,VALID,20.828,VALID,52.0,VALID,0.373,
2017-07-12, 08:34:06,VALID,919.488,VALID,0.0,VALID,89.814,VALID,188.164,VALID,20.856,VALID,49.0,VALID,0.073,
2017-07-12, 08:35:06,VALID,919.497,VALID,0.0,VALID,90.77,VALID,189.78,VALID,20.946,VALID,88.0,VALID,0.0,
2017-07-12, 08:36:06,VALID,919.489,VALID,0.0,VALID,90.089,VALID,191.667,VALID,20.99,VALID,127.0,VALID,0.0,
2017-07-12, 08:37:06,VALID,919.489,VALID,0.0,VALID,89.36,VALID,193.192,VALID,21.018,VALID,125.0,VALID,0.0,
2017-07-12, 08:38:06,VALID,919.489,VALID,0.0,VALID,90.576,VALID,194.529,VALID,21.051,VALID,152.0,VALID,0.0,
2017-07-12, 08:39:06,VALID,919.47,VALID,0.0,VALID,90.759,VALID,196.488,VALID,21.086,VALID,128.0,VALID,0.0,
2017-07-12, 08:40:06,VALID,919.457,VALID,0.0,VALID,91.06,VALID,198.52,VALID,21.053,VALID,100.0,VALID,0.0,
2017-07-12, 08:41:06,VALID,919.446,VALID,0.0,VALID,90.292,VALID,200.484,VALID,20.977,VALID,100.0,VALID,0.0,
2017-07-12, 08:42:06,VALID,919.436,VALID,0.0,VALID,91.056,VALID,202.11,VALID,20.987,VALID,87.0,VALID,0.0,
2017-07-12, 08:43:06,VALID,919.415,VALID,0.0,VALID,89.674,VALID,203.865,VALID,21.009,VALID,75.0,VALID,0.096,
2017-07-12, 08:44:06,VALID,919.421,VALID,0.0,VALID,87.951,VALID,205.741,VALID,21.044,VALID,62.0,VALID,0.317,
2017-07-12, 08:45:06,VALID,919.404,VALID,0.0,VALID,86.826,VALID,207.247,VALID,21.056,VALID,64.0,VALID,0.025,
2017-07-12, 08:46:06,VALID,919.394,VALID,0.0,VALID,87.248,VALID,208.597,VALID,21.096,VALID,65.0,VALID,0.0,
2017-07-12, 08:47:06,VALID,919.398,VALID,0.0,VALID,87.244,VALID,210.038,VALID,21.149,VALID,66.0,VALID,0.014,
2017-07-12, 08:48:06,VALID,919.39,VALID,0.0,VALID,88.255,VALID,211.394,VALID,21.212,VALID,66.0,VALID,0.0,
2017-07-12, 08:49:06,VALID,919.383,VALID,0.0,VALID,87.216,VALID,212.536,VALID,21.301,VALID,66.0,VALID,0.007,
2017-07-12, 08:50:06,VALID,919.382,VALID,0.0,VALID,84.978,VALID,213.541,VALID,21.395,VALID,166.0,VALID,0.126,
2017-07-12, 08:51:06,VALID,919.375,VALID,0.0,VALID,84.345,VALID,214.914,VALID,21.469,VALID,139.0,VALID,0.082,
2017-07-12, 08:52:06,VALID,919.392,VALID,0.0,VALID,84.715,VALID,216.398,VALID,21.509,VALID,145.0,VALID,0.019,
2017-07-12, 08:53:06,VALID,919.392,VALID,0.0,VALID,85.004,VALID,217.986,VALID,21.563,VALID,92.0,VALID,0.514,
2017-07-12, 08:54:06,VALID,919.394,VALID,0.0,VALID,82.804,VALID,219.854,VALID,21.562,VALID,80.0,VALID,0.561,
2017-07-12, 08:55:06,VALID,919.411,VALID,0.0,VALID,80.564,VALID,222.188,VALID,21.477,VALID,97.0,VALID,0.558,
2017-07-12, 08:56:06,VALID,919.424,VALID,0.0,VALID,81.372,VALID,224.609,VALID,21.387,VALID,103.0,VALID,0.777,
2017-07-12, 08:57:06,VALID,919.416,VALID,0.0,VALID,82.321,VALID,227.263,VALID,21.299,VALID,96.0,VALID,0.725,
2017-07-12, 08:58:06,VALID,919.42,VALID,0.0,VALID,85.083,VALID,229.964,VALID,21.273,VALID,90.0,VALID,0.439,
2017-07-12, 08:59:06,VALID,919.427,VALID,0.0,VALID,88.169,VALID,232.759,VALID,21.295,VALID,137.0,VALID,0.496,
2017-07-12, 09:00:06,VALID,919.424,VALID,0.0,VALID,88.607,VALID,235.89,VALID,21.331,VALID,134.0,VALID,0.162,
2017-07-12, 09:01:06,VALID,919.428,VALID,0.0,VALID,88.067,VALID,239.087,VALID,21.385,VALID,121.0,VALID,0.011,
2017-07-12, 09:02:06,VALID,919.439,VALID,0.0,VALID,86.84,VALID,242.136,VALID,21.465,VALID,121.0,VALID,0.0,
2017-07-12, 09:03:06,VALID,919.433,VALID,0.0,VALID,87.961,VALID,244.941,VALID,21.578,VALID,119.0,VALID,0.016,
2017-07-12, 09:04:06,VALID,919.434,VALID,0.0,VALID,87.268,VALID,247.586,VALID,21.643,VALID,88.0,VALID,0.045,
2017-07-12, 09:05:06,VALID,919.436,VALID,0.0,VALID,86.041,VALID,250.14,VALID,21.669,VALID,88.0,VALID,0.0,
2017-07-12, 09:06:06,VALID,919.446,VALID,0.0,VALID,86.112,VALID,252.575,VALID,21.73,VALID,66.0,VALID,0.0,
2017-07-12, 09:07:06,VALID,919.451,VALID,0.0,VALID,85.84,VALID,255.861,VALID,21.798,VALID,352.0,VALID,0.0,
2017-07-12, 09:08:06,VALID,919.448,VALID,0.0,VALID,85.058,VALID,257.527,VALID,21.857,VALID,348.0,VALID,0.0,
2017-07-12, 09:09:06,VALID,919.454,VALID,0.0,VALID,83.678,VALID,258.034,VALID,21.915,VALID,345.0,VALID,0.0,
2017-07-12, 09:10:06,VALID,919.471,VALID,0.0,VALID,83.765,VALID,258.329,VALID,21.946,VALID,345.0,VALID,0.0,
2017-07-12, 09:11:06,VALID,919.48,VALID,0.0,VALID,84.044,VALID,258.987,VALID,21.991,VALID,345.0,VALID,0.0,
2017-07-12, 09:12:06,VALID,919.493,VALID,0.0,VALID,84.716,VALID,260.17,VALID,22.056,VALID,350.0,VALID,0.0,
2017-07-12, 09:13:06,VALID,919.486,VALID,0.0,VALID,84.409,VALID,260.856,VALID,22.027,VALID,24.0,VALID,0.292,
2017-07-12, 09:14:06,VALID,919.484,VALID,0.0,VALID,84.661,VALID,262.053,VALID,21.957,VALID,26.0,VALID,0.448,
2017-07-12, 09:15:06,VALID,919.486,VALID,0.0,VALID,85.168,VALID,263.405,VALID,21.972,VALID,3.0,VALID,0.638,
2017-07-12, 09:16:06,VALID,919.493,VALID,0.0,VALID,83.77,VALID,264.796,VALID,21.959,VALID,7.0,VALID,0.539,
2017-07-12, 09:17:06,VALID,919.477,VALID,0.0,VALID,85.473,VALID,266.79,VALID,21.939,VALID,14.0,VALID,0.837,
2017-07-12, 09:18:06,VALID,919.477,VALID,0.0,VALID,84.348,VALID,269.096,VALID,21.963,VALID,10.0,VALID,1.079,
2017-07-12, 09:19:06,VALID,919.478,VALID,0.0,VALID,83.857,VALID,271.248,VALID,21.916,VALID,1.0,VALID,0.647,
2017-07-12, 09:20:06,VALID,919.471,VALID,0.0,VALID,86.567,VALID,273.743,VALID,21.929,VALID,360.0,VALID,0.193,
2017-07-12, 09:21:06,VALID,919.48,VALID,0.0,VALID,87.965,VALID,276.223,VALID,22.041,VALID,345.0,VALID,0.001,
2017-07-12, 09:22:06,VALID,919.467,VALID,0.0,VALID,86.9,VALID,278.803,VALID,22.123,VALID,328.0,VALID,0.453,
2017-07-12, 09:23:06,VALID,919.454,VALID,0.0,VALID,82.116,VALID,281.621,VALID,22.13,VALID,349.0,VALID,0.643,
2017-07-12, 09:24:06,VALID,919.433,VALID,0.0,VALID,85.611,VALID,285.296,VALID,22.143,VALID,5.0,VALID,0.834,
2017-07-12, 09:25:06,VALID,919.429,VALID,0.0,VALID,84.299,VALID,289.071,VALID,22.203,VALID,14.0,VALID,1.044,
2017-07-12, 09:26:06,VALID,919.414,VALID,0.0,VALID,83.288,VALID,293.147,VALID,22.282,VALID,9.0,VALID,0.621,
2017-07-12, 09:27:06,VALID,919.395,VALID,0.0,VALID,83.449,VALID,297.429,VALID,22.299,VALID,15.0,VALID,1.041,
2017-07-12, 09:28:06,VALID,919.394,VALID,0.0,VALID,81.895,VALID,302.166,VALID,22.325,VALID,282.0,VALID,0.599,
2017-07-12, 09:29:06,VALID,919.414,VALID,0.0,VALID,78.75,VALID,306.768,VALID,22.369,VALID,334.0,VALID,0.368,
2017-07-12, 09:30:06,VALID,919.434,VALID,0.0,VALID,76.911,VALID,308.961,VALID,22.382,VALID,280.0,VALID,0.363,
2017-07-12, 09:31:06,VALID,919.439,VALID,0.0,VALID,78.606,VALID,313.269,VALID,22.396,VALID,249.0,VALID,0.172,
2017-07-12, 09:32:06,VALID,919.442,VALID,0.0,VALID,81.169,VALID,316.233,VALID,22.475,VALID,244.0,VALID,0.0,
2017-07-12, 09:33:06,VALID,919.436,VALID,0.0,VALID,82.335,VALID,318.021,VALID,22.56,VALID,45.0,VALID,0.522,
2017-07-12, 09:34:06,VALID,919.435,VALID,0.0,VALID,81.539,VALID,320.853,VALID,22.656,VALID,9.0,VALID,0.614,
2017-07-12, 09:35:06,VALID,919.427,VALID,0.0,VALID,78.662,VALID,325.861,VALID,22.686,VALID,333.0,VALID,0.704,
2017-07-12, 09:36:06,VALID,919.405,VALID,0.0,VALID,76.866,VALID,330.31,VALID,22.632,VALID,275.0,VALID,0.595,
2017-07-12, 09:37:06,VALID,919.408,VALID,0.0,VALID,79.358,VALID,334.552,VALID,22.564,VALID,267.0,VALID,0.541,
2017-07-12, 09:38:06,VALID,919.388,VALID,0.0,VALID,80.78,VALID,338.065,VALID,22.542,VALID,14.0,VALID,0.463,
2017-07-12, 09:39:06,VALID,919.392,VALID,0.0,VALID,81.427,VALID,341.359,VALID,22.63,VALID,14.0,VALID,0.154,
2017-07-12, 09:40:06,VALID,919.405,VALID,0.0,VALID,80.863,VALID,341.446,VALID,22.775,VALID,48.0,VALID,0.064,
2017-07-12, 09:41:06,VALID,919.416,VALID,0.0,VALID,78.912,VALID,342.089,VALID,22.92,VALID,340.0,VALID,0.126,
2017-07-12, 09:42:06,VALID,919.409,VALID,0.0,VALID,77.942,VALID,343.599,VALID,23.056,VALID,330.0,VALID,0.069,
2017-07-12, 09:43:06,VALID,919.416,VALID,0.0,VALID,78.336,VALID,345.873,VALID,23.139,VALID,243.0,VALID,0.014,
2017-07-12, 09:44:06,VALID,919.411,VALID,0.0,VALID,78.307,VALID,348.129,VALID,23.178,VALID,209.0,VALID,0.122,
2017-07-12, 09:45:06,VALID,919.417,VALID,0.0,VALID,78.051,VALID,349.766,VALID,23.164,VALID,254.0,VALID,0.213,
2017-07-12, 09:46:06,VALID,919.429,VALID,0.0,VALID,79.703,VALID,348.278,VALID,22.997,VALID,250.0,VALID,0.389,
2017-07-12, 09:47:06,VALID,919.411,VALID,0.0,VALID,79.911,VALID,343.721,VALID,22.822,VALID,279.0,VALID,0.085,
2017-07-12, 09:48:06,VALID,919.408,VALID,0.0,VALID,78.256,VALID,340.627,VALID,22.778,VALID,308.0,VALID,0.32,
2017-07-12, 09:49:06,VALID,919.393,VALID,0.0,VALID,79.602,VALID,338.885,VALID,22.796,VALID,278.0,VALID,0.158,
2017-07-12, 09:50:06,VALID,919.381,VALID,0.0,VALID,77.371,VALID,338.579,VALID,22.873,VALID,307.0,VALID,0.299,
2017-07-12, 09:51:06,VALID,919.361,VALID,0.0,VALID,76.771,VALID,338.588,VALID,22.87,VALID,352.0,VALID,0.907,
2017-07-12, 09:52:06,VALID,919.366,VALID,0.0,VALID,78.223,VALID,338.92,VALID,22.816,VALID,253.0,VALID,0.655,
2017-07-12, 09:53:06,VALID,919.366,VALID,0.0,VALID,77.273,VALID,340.374,VALID,22.833,VALID,244.0,VALID,1.272,
2017-07-12, 09:54:06,VALID,919.361,VALID,0.0,VALID,76.516,VALID,343.405,VALID,22.691,VALID,234.0,VALID,0.803,
2017-07-12, 09:55:06,VALID,919.376,VALID,0.0,VALID,79.135,VALID,345.477,VALID,22.638,VALID,261.0,VALID,1.193,
2017-07-12, 09:56:06,VALID,919.389,VALID,0.0,VALID,78.22,VALID,347.745,VALID,22.494,VALID,254.0,VALID,1.353,
2017-07-12, 09:57:06,VALID,919.381,VALID,0.0,VALID,79.183,VALID,349.688,VALID,22.397,VALID,254.0,VALID,0.997,
2017-07-12, 09:58:06,VALID,919.374,VALID,0.0,VALID,79.739,VALID,350.171,VALID,22.359,VALID,261.0,VALID,0.982,
2017-07-12, 09:59:06,VALID,919.368,VALID,0.0,VALID,79.638,VALID,351.117,VALID,22.353,VALID,257.0,VALID,0.82,
2017-07-12, 10:00:06,VALID,919.372,VALID,0.0,VALID,81.109,VALID,353.294,VALID,22.368,VALID,249.0,VALID,0.787,
2017-07-12, 10:01:06,VALID,919.362,VALID,0.0,VALID,79.217,VALID,357.209,VALID,22.445,VALID,250.0,VALID,0.245,
2017-07-12, 10:02:06,VALID,919.35,VALID,0.0,VALID,79.611,VALID,362.157,VALID,22.5,VALID,320.0,VALID,0.341,
2017-07-12, 10:03:06,VALID,919.355,VALID,0.0,VALID,79.143,VALID,365.796,VALID,22.595,VALID,232.0,VALID,0.261,
2017-07-12, 10:04:06,VALID,919.352,VALID,0.0,VALID,78.593,VALID,370.065,VALID,22.709,VALID,234.0,VALID,0.556,
2017-07-12, 10:05:06,VALID,919.359,VALID,0.0,VALID,78.625,VALID,373.547,VALID,22.699,VALID,247.0,VALID,0.705,
2017-07-12, 10:06:06,VALID,919.333,VALID,0.0,VALID,77.626,VALID,376.269,VALID,22.691,VALID,250.0,VALID,0.619,
2017-07-12, 10:07:06,VALID,919.34,VALID,0.0,VALID,79.565,VALID,380.114,VALID,22.74,VALID,329.0,VALID,0.186,
2017-07-12, 10:08:06,VALID,919.332,VALID,0.0,VALID,80.091,VALID,382.969,VALID,22.889,VALID,345.0,VALID,0.147,
2017-07-12, 10:09:06,VALID,919.326,VALID,0.0,VALID,77.359,VALID,385.115,VALID,23.017,VALID,255.0,VALID,0.392,
2017-07-12, 10:10:06,VALID,919.317,VALID,0.0,VALID,76.539,VALID,391.149,VALID,22.993,VALID,229.0,VALID,0.98,
2017-07-12, 10:11:06,VALID,919.322,VALID,0.0,VALID,78.332,VALID,395.796,VALID,23.016,VALID,248.0,VALID,0.464,
2017-07-12, 10:12:06,VALID,919.319,VALID,0.0,VALID,77.89,VALID,399.615,VALID,22.998,VALID,241.0,VALID,0.529,
2017-07-12, 10:13:06,VALID,919.336,VALID,0.0,VALID,79.732,VALID,405.246,VALID,22.962,VALID,256.0,VALID,0.747,
2017-07-12, 10:14:06,VALID,919.331,VALID,0.0,VALID,78.194,VALID,409.314,VALID,22.86,VALID,278.0,VALID,0.635,
2017-07-12, 10:15:06,VALID,919.335,VALID,0.0,VALID,77.436,VALID,413.109,VALID,22.762,VALID,253.0,VALID,1.193,
2017-07-12, 10:16:06,VALID,919.34,VALID,0.0,VALID,76.825,VALID,420.033,VALID,22.685,VALID,256.0,VALID,1.131,
2017-07-12, 10:17:06,VALID,919.327,VALID,0.0,VALID,78.483,VALID,427.148,VALID,22.641,VALID,253.0,VALID,1.064,
2017-07-12, 10:18:06,VALID,919.333,VALID,0.0,VALID,78.872,VALID,433.27,VALID,22.665,VALID,271.0,VALID,0.791,
2017-07-12, 10:19:06,VALID,919.352,VALID,0.0,VALID,81.507,VALID,441.769,VALID,22.768,VALID,284.0,VALID,0.369,
2017-07-12, 10:20:06,VALID,919.355,VALID,0.0,VALID,79.892,VALID,451.807,VALID,22.886,VALID,284.0,VALID,0.52,
2017-07-12, 10:21:06,VALID,919.368,VALID,0.0,VALID,77.606,VALID,460.401,VALID,22.929,VALID,263.0,VALID,0.852,
2017-07-12, 10:22:06,VALID,919.37,VALID,0.0,VALID,78.454,VALID,462.145,VALID,22.888,VALID,258.0,VALID,0.991,
2017-07-12, 10:23:06,VALID,919.367,VALID,0.0,VALID,77.909,VALID,476.316,VALID,22.834,VALID,270.0,VALID,1.759,
2017-07-12, 10:24:06,VALID,919.365,VALID,0.0,VALID,77.096,VALID,480.111,VALID,22.727,VALID,257.0,VALID,1.593,
2017-07-12, 10:25:06,VALID,919.343,VALID,0.0,VALID,77.422,VALID,484.919,VALID,22.633,VALID,253.0,VALID,1.696,
2017-07-12, 10:26:06,VALID,919.314,VALID,0.0,VALID,78.057,VALID,489.343,VALID,22.594,VALID,246.0,VALID,1.544,
2017-07-12, 10:27:06,VALID,919.302,VALID,0.0,VALID,79.162,VALID,494.322,VALID,22.623,VALID,246.0,VALID,0.788,
2017-07-12, 10:28:06,VALID,919.293,VALID,0.0,VALID,80.164,VALID,494.292,VALID,22.774,VALID,284.0,VALID,0.15,
2017-07-12, 10:29:06,VALID,919.286,VALID,0.0,VALID,79.372,VALID,493.91,VALID,22.986,VALID,232.0,VALID,1.416,
2017-07-12, 10:30:06,VALID,919.282,VALID,0.0,VALID,77.204,VALID,497.859,VALID,23.003,VALID,260.0,VALID,1.521,
2017-07-12, 10:31:06,VALID,919.252,VALID,0.0,VALID,76.841,VALID,502.4,VALID,22.96,VALID,235.0,VALID,1.107,
2017-07-12, 10:32:06,VALID,919.249,VALID,0.0,VALID,78.069,VALID,512.926,VALID,23.03,VALID,252.0,VALID,0.964,
2017-07-12, 10:33:06,VALID,919.254,VALID,0.0,VALID,78.161,VALID,518.833,VALID,23.073,VALID,257.0,VALID,0.651,
2017-07-12, 10:34:06,VALID,919.26,VALID,0.0,VALID,79.093,VALID,511.286,VALID,23.174,VALID,294.0,VALID,0.113,
2017-07-12, 10:35:06,VALID,919.256,VALID,0.0,VALID,78.802,VALID,526.001,VALID,23.369,VALID,348.0,VALID,0.202,
2017-07-12, 10:36:06,VALID,919.247,VALID,0.0,VALID,75.934,VALID,525.103,VALID,23.55,VALID,328.0,VALID,0.372,
2017-07-12, 10:37:06,VALID,919.238,VALID,0.0,VALID,76.357,VALID,531.353,VALID,23.725,VALID,290.0,VALID,0.807,